Regional Weather Roundup
Issued by NWS

Home | Current Version | Previous Version | Graphics & Text | Print | Product List | Glossary On
Versions: 1 2 3 4 5 6 7 8 9 10 11 12 13 14 15 16 17 18 19 20 21 22 23 24 25 26 27 28 29 30 31 32 33 34 35 36 37 38 39 40 41 42 43 44 45 46 47 48 49 50
000
ASUS43 KLSX 242107
RWRMO

WEATHER SUMMARY FOR MISSOURI
NATIONAL WEATHER SERVICE SPRINGFIELD MO
400 PM CDT FRI APR 24 2015

NOTE: "FAIR" INDICATES FEW OR NO CLOUDS BELOW 12,000 FEET WITH NO
       SIGNIFICANT WEATHER AND/OR OBSTRUCTIONS TO VISIBILITY.
       CURRENT SKY AND/OR WEATHER CONDITIONS ARE NOT AVAILABLE FOR
       CHILLICOTHE AND FARMINGTON.

MOZ001>031-035>038-043-044-053-054-242200-
...NORTHERN AND WESTERN MISSOURI...

CITY           SKY/WX    TMP DP  RH WIND       PRES   REMARKS
KANSAS CTY INT CLOUDY    58  53  84 S14       29.68F
KANSAS C DTWN  CLOUDY    61  53  75 S9G21     29.68F
LEE`S SUMMIT   CLOUDY    59  52  77 S9G17     29.70F
ST JOSEPH      CLOUDY    60  51  72 S15       29.67F
CHILLICOTHE      N/A     60  52  74 S10       29.73F
KIRKSVILLE     CLOUDY    64  47  53 S12       29.73F

$$
MOZ066>068-077>081-088>096-101>105-242200-
...SOUTHWEST MISSOURI...

CITY           SKY/WX    TMP DP  RH WIND       PRES   REMARKS
SPRINGFIELD    CLOUDY    58  50  75 S20G28    29.77F
JOPLIN         CLOUDY    68  56  65 S21G29    29.71F

$$
MOZ032>034-039>042-045>050-055>058-069>072-242200-
...CENTRAL MISSOURI...

CITY           SKY/WX    TMP DP  RH WIND       PRES   REMARKS
COLUMBIA       CLOUDY    63  48  58 S23G30    29.77F
JEFFERSON CITY CLOUDY    63  47  55 SE18      29.78F
ROLLA          CLOUDY    58  46  64 S22G31    29.80F
SEDALIA        CLOUDY    61  52  72 S20       29.75F
WHITEMAN AFB   PTSUNNY   60  53  78 S14       29.72F
WARRENSBURG    CLOUDY    61  52  72 SE14      29.71F
OSAGE BEACH    CLOUDY    63  46  55 S14G23    29.78F

$$
MOZ051-052-059>065-242200-
...EAST CENTRAL MISSOURI...

CITY           SKY/WX    TMP DP  RH WIND       PRES   REMARKS
ST LOUIS INTL  CLOUDY    66  35  31 S15       29.85
SPIRIT OF STL  CLOUDY    64  37  36 S9G21     29.84F
ST CHARLES     CLOUDY    65  38  36 S21G28    29.83F

$$
MOZ072>076-082>087-097>100-106>115-242200-
...SOUTH CENTRAL AND SOUTHEAST MISSOURI...

CITY           SKY/WX    TMP DP  RH WIND       PRES   REMARKS
CAPE GIRARDEAU LGT RAIN  53  48  83 S8        29.97S
FARMINGTON     CLOUDY    55  43  62 S18       29.93F
POPLAR BLUFF   CLOUDY    54  46  74 SE8       29.93F
WEST PLAINS    CLOUDY    53  47  79 SE9       29.88F

$$


USA.gov is the U.S. government's official web portal to all federal, state and local government web resources and services.